Temp
17 16 16 15 15 15 15 15 15 16 16 16 16 16 16 16 16 17 17 17 17 18 18 18 18 18 19 19 20 21 21 18
18 17 16 15 15 15 16 16 16 16 16 17 16 16 17 16 16 17 17 17 17 17 17 18 19 19 19 19 20 20 20 18
18 17 17 16 16 16 16 16 16 16 16 17 16 17 17 17 17 17 17 18 17 17 18 18 18 18 19 19 19 19 19 18
17 17 17 17 17 16 17 16 15 15 16 17 17 17 17 17 18 18 18 17 18 18 17 17 17 17 17 18 18 19 18 17
17 16 17 17 17 18 17 17 16 16 16 16 16 16 17 17 17 17 17 17 17 17 17 17 17 16 16 17 17 17 17 16
17 16 16 17 18 17 17 17 16 15 15 16 16 16 16 16 17 17 16 17 17 16 17 17 17 17 16 16 16 17 17 16
17 16 16 16 17 16 16 16 16 15 15 15 15 16 16 16 16 16 16 16 16 16 16 17 17 17 17 17 16 16 16 16
17 16 16 16 16 16 16 16 15 15 14 14 15 15 16 16 15 15 16 16 15 16 16 16 16 17 17 17 17 17 16 16
17 16 16 15 15 16 16 16 16 15 14 14 14 14 15 16 15 15 15 15 15 14 14 15 15 16 16 16 17 17 17 16
17 17 15 16 16 16 16 16 16 16 15 14 14 14 14 15 14 14 15 14 14 13 13 14 14 15 15 16 16 16 17 17
18 17 16 16 16 16 16 16 16 16 16 14 14 14 14 15 14 14 14 13 12 12 12 12 13 14 14 14 15 16 16 16
18 17 16 16 16 15 16 16 16 16 15 14 14 13 13 14 13 13 13 13 12 11 11 12 12 13 13 13 14 15 16 15
18 17 16 16 15 16 16 16 16 16 15 14 13 13 13 13 12 12 12 12 11 10 10 10 12 12 12 12 13 15 14 14
18 17 16 16 16 17 17 17 16 16 14 13 12 12 12 12 11 11 10 11 10 10 10 9 10 11 11 11 9 12 13 12
18 18 17 16 17 17 17 17 16 15 14 13 12 11 11 10 10 10 10 10 9 9 9 9 9 10 10 11 8 8 10 12
18 18 17 16 17 17 17 17 16 16 15 13 12 11 10 10 9 9 9 10 9 8 8 8 8 8 9 9 9 9 7 8
18 18 18 17 17 17 17 17 17 16 14 13 12 11 10 10 9 9 9 9 8 8 7 7 7 7 7 7 7 8 8 8
18 18 18 17 17 17 16 17 17 16 14 13 13 12 11 10 9 9 9 8 8 7 7 7 7 7 6 6 6 6 7 7
18 18 18 18 17 16 16 17 17 16 15 14 14 13 12 10 9 9 8 8 7 7 6 6 6 6 6 5 5 5 6 6
19 18 18 18 17 16 16 16 16 16 15 14 13 13 11 10 9 8 8 7 7 7 6 6 6 6 6 5 5 5 5 5
Height
864 863 863 863 862 863 863 864 864 865 864 864 863 863 862 860 859 857 856 854 853 851 849 848 847 845 844 843 840 838 837 837
865 866 866 866 865 866 866 867 867 867 867 866 865 865 865 864 863 861 859 857 855 853 851 850 848 846 845 843 842 841 840 838
866 867 867 867 867 868 868 869 869 869 869 869 868 868 868 866 865 863 862 860 858 856 854 852 849 847 846 845 843 843 841 839
867 868 868 869 869 868 870 870 870 870 871 870 871 870 869 868 866 865 864 862 860 858 858 856 853 851 848 846 845 844 843 841
867 869 869 869 869 870 871 873 873 873 874 873 873 872 870 869 869 868 866 865 863 861 860 858 856 854 853 851 849 846 845 843
868 869 869 869 871 871 873 874 875 875 875 875 875 875 874 872 871 870 869 867 866 864 862 860 858 856 855 854 851 849 847 846
869 870 871 871 872 873 875 876 877 877 877 877 877 877 876 875 874 873 872 871 868 867 864 862 861 859 857 854 853 852 851 848
869 871 871 872 873 875 876 877 879 879 879 879 879 878 877 878 877 875 874 873 871 869 866 864 863 861 858 856 854 852 851 850
868 870 872 873 874 875 877 878 880 880 881 881 881 879 878 879 878 877 876 875 872 870 868 866 864 862 859 856 854 852 850 850
868 870 872 873 874 876 878 879 880 881 882 882 882 882 880 881 880 878 878 877 875 873 871 869 866 864 861 858 854 852 850 849
866 869 872 874 875 876 878 879 881 882 883 883 884 884 882 882 881 880 880 878 876 875 873 871 868 865 863 858 853 851 849 847
864 867 870 873 875 876 878 880 881 882 882 884 885 886 884 882 882 881 881 879 877 876 874 872 871 867 864 859 854 850 848 848
863 865 869 872 874 874 877 878 880 882 883 885 885 885 885 884 883 882 881 881 879 878 876 874 871 868 865 860 855 852 850 850
860 864 866 870 872 873 874 876 879 881 883 885 885 885 885 884 884 883 882 882 881 880 878 876 874 871 868 863 858 852 850 849
856 861 864 868 870 872 873 875 877 880 883 885 886 885 885 885 885 884 883 884 882 881 879 878 876 874 871 870 866 862 857 849
854 858 861 866 868 870 872 873 875 877 880 882 885 886 886 885 885 885 885 884 882 881 880 879 877 875 872 871 870 867 863 853
851 855 858 862 865 867 869 871 873 875 878 881 884 885 885 885 885 885 885 884 883 881 880 879 878 876 874 871 869 866 864 860
847 852 856 860 863 866 868 871 872 874 876 880 882 884 884 884 885 885 885 884 882 881 880 879 877 875 873 872 870 868 864 861
845 850 853 857 861 865 867 869 871 873 875 879 881 882 883 883 884 884 884 883 882 880 879 877 876 874 872 871 869 867 864 861
840 848 853 856 859 863 867 869 871 873 875 877 879 881 881 882 883 883 883 881 880 878 877 875 874 871 869 867 865 864 861 859
Wind_Speed
8 8 11 14 15 15 14 14 14 13 12 14 15 19 18 18 19 17 19 19 19 17 15 15 13 14 15 16 13 10 14 13
7 8 8 8 14 16 16 16 15 16 16 16 11 11 18 23 22 23 23 23 24 23 21 20 17 16 14 19 14 15 18 8
7 7 7 7 11 11 12 12 12 15 11 13 13 12 10 13 20 19 23 19 17 25 22 20 19 20 19 20 20 17 18 13
7 8 7 7 7 8 10 10 14 13 13 14 12 11 11 11 15 20 19 22 24 16 21 20 21 22 21 18 17 18 13 18
8 7 7 7 8 10 11 11 12 14 15 12 13 15 16 16 18 17 19 21 22 23 21 19 16 19 20 20 20 21 20 14
11 8 7 8 9 12 11 13 13 12 13 13 14 15 16 17 19 19 20 20 21 22 21 21 19 16 16 17 17 18 17 17
10 8 8 9 12 12 12 13 13 14 14 15 14 14 16 17 18 18 19 20 21 21 22 21 20 20 16 15 13 14 14 17
10 9 9 11 14 13 13 12 13 12 12 13 13 15 15 16 17 18 18 19 21 21 22 23 20 20 21 20 13 11 10 13
13 11 12 13 14 12 11 11 10 11 11 12 13 11 12 15 15 15 18 19 18 22 22 22 22 22 23 24 19 14 9 9
13 13 12 11 12 12 11 9 10 9 8 8 10 10 11 12 14 14 17 17 18 19 19 21 21 21 24 24 24 19 15 12
15 14 13 12 12 11 10 11 8 7 8 7 7 9 10 12 11 13 15 13 16 19 20 21 23 22 22 25 24 22 15 8
17 16 15 13 11 11 9 6 7 7 7 6 7 7 8 12 12 12 14 14 15 18 19 19 19 22 22 26 24 25 5 12
19 18 18 14 13 12 11 11 8 7 6 6 5 6 8 7 10 10 12 14 13 16 18 19 19 22 18 25 20 17 21 24
20 19 20 17 14 14 12 13 9 11 9 6 6 5 7 8 9 9 11 12 14 16 17 19 18 21 17 20 4 16 25 29
22 20 21 19 16 12 9 10 8 7 5 8 5 4 6 7 7 8 11 11 13 14 16 16 17 18 18 12 4 3 21 11
20 20 21 20 18 16 14 13 14 16 14 10 4 3 4 5 7 9 10 10 12 12 13 14 15 16 18 15 15 18 4 6
22 21 21 21 20 15 16 11 10 13 10 7 5 2 1 4 6 7 9 9 10 11 13 14 13 15 15 18 19 18 17 12
24 20 21 20 20 18 10 15 10 13 10 7 6 3 2 1 3 6 7 8 10 11 12 13 14 14 14 15 17 16 15 14
23 21 19 20 19 16 13 9 9 5 9 7 7 5 5 6 4 6 8 9 10 11 12 14 13 12 13 16 16 17 18 18
24 20 18 18 17 14 12 9 7 7 6 0 2 2 4 4 3 6 8 10 12 14 14 14 15 16 15 14 17 17 16 16
Wind_Direction
92 60 48 47 66 68 67 65 62 56 54 53 47 36 36 39 36 38 35 31 26 18 16 12 10 9 7 358 346 327 323 334
93 77 81 61 68 70 65 63 61 56 56 52 40 45 31 42 44 44 42 42 39 36 32 24 11 4 10 6 353 345 352 9
77 84 87 97 74 67 56 51 45 45 37 51 57 52 45 29 36 40 35 24 31 37 28 26 20 19 13 8 3 3 8 11
103 93 94 93 93 95 89 71 58 69 56 61 53 39 29 34 27 32 36 29 22 32 26 26 26 24 21 15 10 1 4 4
117 102 96 94 106 90 81 75 70 62 58 59 55 52 48 42 42 38 37 32 29 27 23 22 27 32 23 20 15 11 19 7
105 104 116 82 105 92 91 89 82 67 54 61 58 52 45 45 38 37 32 30 30 24 20 18 16 19 25 21 20 18 12 9
120 116 106 97 102 98 95 91 84 77 64 64 59 52 49 42 36 36 35 27 23 21 13 11 13 6 7 11 10 14 14 8
133 123 120 113 112 110 104 101 91 81 72 65 57 51 48 44 35 33 30 27 21 18 14 8 6 5 2 352 356 359 3 7
145 133 125 122 119 114 113 108 100 88 74 64 54 53 50 45 42 32 25 28 20 19 14 9 4 4 359 354 352 345 331 3
159 146 144 139 133 124 118 110 106 101 88 68 51 46 42 51 41 35 31 28 17 19 14 4 358 1 350 348 346 340 328 318
167 151 153 145 139 130 133 130 117 108 104 80 60 44 40 52 45 35 36 23 18 15 7 3 359 2 351 342 340 335 319 319
169 162 160 159 151 145 140 138 140 132 100 85 74 56 42 53 43 23 36 22 16 12 7 8 3 358 348 341 344 336 352 13
175 173 171 168 168 179 169 169 156 129 109 96 87 78 49 53 51 23 36 25 11 14 4 2 359 357 355 341 338 349 12 1
181 184 177 183 185 190 178 168 177 144 126 120 99 71 77 38 48 26 28 23 12 16 10 1 356 357 360 334 337 325 345 339
186 190 182 190 194 196 179 157 148 142 162 143 106 75 51 52 37 27 29 21 13 12 5 5 354 352 357 360 343 345 331 348
192 191 187 193 204 193 187 180 195 201 162 138 143 91 66 43 30 28 19 19 7 7 357 356 350 345 347 348 334 322 317 317
192 193 191 195 203 206 191 216 173 142 137 134 149 191 59 48 24 21 10 3 1 1 353 349 345 340 341 341 331 329 327 327
186 197 196 196 196 218 220 201 241 154 150 159 203 187 302 214 49 8 2 354 351 348 342 339 335 335 340 331 330 325 327 327
181 199 201 198 196 203 219 222 208 190 172 191 216 234 217 127 45 2 347 341 337 333 332 334 324 325 328 321 314 318 316 315
182 195 212 197 194 195 205 208 216 215 223 178 110 35 71 10 359 337 330 329 326 322 316 314 314 309 298 295 299 294 296 308